Time,TemperatureF,DewpointF,PressureIn,WindDirection,WindDirectionDegrees,WindSpeedMPH,WindSpeedGustMPH,Humidity,HourlyPrecipIn,Conditions,Clouds,dailyrainin,SoftwareType,DateUTC
2016-02-13 00:02:00,16.7,7.0,30.25,NW,315,7.8,-999.0,65,-99.99,,,0.00,Acu-Link.com,2016-02-13 05:02:00,
2016-02-13 00:17:00,16.3,6.6,30.26,NNW,337,8.9,-999.0,65,-99.99,,,0.00,Acu-Link.com,2016-02-13 05:17:00,
2016-02-13 00:32:00,16.2,6.2,30.27,NW,315,5.8,-999.0,64,-99.99,,,0.00,Acu-Link.com,2016-02-13 05:32:00,
2016-02-13 00:47:00,15.8,4.4,30.28,NW,315,7.8,-999.0,60,-99.99,,,0.00,Acu-Link.com,2016-02-13 05:47:00,
2016-02-13 01:02:00,15.4,3.7,30.28,WNW,292,7.3,-999.0,59,-99.99,,,0.00,Acu-Link.com,2016-02-13 06:02:00,
2016-02-13 01:17:00,15.1,3.4,30.28,NNW,337,8.9,-999.0,59,-99.99,,,0.00,Acu-Link.com,2016-02-13 06:17:00,
2016-02-13 01:33:00,14.5,3.2,30.28,NNW,337,7.3,-999.0,60,-99.99,,,0.00,Acu-Link.com,2016-02-13 06:33:00,
2016-02-13 01:48:00,14.0,2.7,30.29,North,0,4.2,-999.0,60,-99.99,,,0.00,Acu-Link.com,2016-02-13 06:48:00,
2016-02-13 02:03:00,13.6,2.0,30.30,WNW,292,11.9,-999.0,59,-99.99,,,0.00,Acu-Link.com,2016-02-13 07:03:00,
2016-02-13 02:18:00,13.5,2.6,30.30,WNW,292,4.7,-999.0,61,-99.99,,,0.00,Acu-Link.com,2016-02-13 07:18:00,
2016-02-13 02:49:00,12.6,3.1,30.31,NNW,337,5.3,-999.0,65,-99.99,,,0.00,Acu-Link.com,2016-02-13 07:49:00,
2016-02-13 03:04:00,12.2,2.4,30.32,NW,315,7.8,-999.0,64,-99.99,,,0.00,Acu-Link.com,2016-02-13 08:04:00,
2016-02-13 03:19:00,12.0,1.2,30.32,WNW,292,4.7,-999.0,61,-99.99,,,0.00,Acu-Link.com,2016-02-13 08:19:00,
2016-02-13 03:34:00,11.7,0.9,30.32,NW,315,4.2,-999.0,61,-99.99,,,0.00,Acu-Link.com,2016-02-13 08:34:00,
2016-02-13 03:49:00,11.3,0.9,30.33,NW,315,7.8,-999.0,62,-99.99,,,0.00,Acu-Link.com,2016-02-13 08:49:00,
2016-02-13 04:05:00,11.1,0.3,30.34,WNW,292,3.7,-999.0,61,-99.99,,,0.00,Acu-Link.com,2016-02-13 09:05:00,
2016-02-13 04:20:00,10.8,0.4,30.33,NW,315,4.7,-999.0,62,-99.99,,,0.00,Acu-Link.com,2016-02-13 09:20:00,
2016-02-13 04:35:00,10.2,0.5,30.34,WNW,292,5.3,-999.0,64,-99.99,,,0.00,Acu-Link.com,2016-02-13 09:35:00,
2016-02-13 04:50:00,9.9,0.5,30.36,NW,315,4.7,-999.0,65,-99.99,,,0.00,Acu-Link.com,2016-02-13 09:50:00,
2016-02-13 05:06:00,9.5,0.5,30.36,WNW,292,4.2,-999.0,66,-99.99,,,0.00,Acu-Link.com,2016-02-13 10:06:00,
2016-02-13 05:21:00,9.3,0.3,30.37,NNW,337,5.3,-999.0,66,-99.99,,,0.00,Acu-Link.com,2016-02-13 10:21:00,
2016-02-13 05:36:00,9.1,0.1,30.38,NW,315,3.2,-999.0,66,-99.99,,,0.00,Acu-Link.com,2016-02-13 10:36:00,
2016-02-13 05:51:00,8.8,0.1,30.39,WNW,292,3.7,-999.0,67,-99.99,,,0.00,Acu-Link.com,2016-02-13 10:51:00,
2016-02-13 06:07:00,8.4,-0.3,30.39,West,270,3.2,-999.0,67,-99.99,,,0.00,Acu-Link.com,2016-02-13 11:07:00,
2016-02-13 06:22:00,8.1,-0.2,30.40,WNW,292,4.7,-999.0,68,-99.99,,,0.00,Acu-Link.com,2016-02-13 11:22:00,
2016-02-13 06:37:00,7.9,-0.4,30.40,WNW,292,4.2,-999.0,68,-99.99,,,0.00,Acu-Link.com,2016-02-13 11:37:00,
2016-02-13 06:52:00,7.3,-0.7,30.41,WNW,292,4.2,-999.0,69,-99.99,,,0.00,Acu-Link.com,2016-02-13 11:52:00,
2016-02-13 07:07:00,7.0,-1.0,30.41,West,270,2.7,-999.0,69,-99.99,,,0.00,Acu-Link.com,2016-02-13 12:07:00,
2016-02-13 07:23:00,6.8,-0.9,30.43,WNW,292,3.7,-999.0,70,-99.99,,,0.00,Acu-Link.com,2016-02-13 12:23:00,
2016-02-13 07:38:00,6.4,-1.3,30.43,WNW,292,3.2,-999.0,70,-99.99,,,0.00,Acu-Link.com,2016-02-13 12:38:00,
2016-02-13 07:53:00,6.3,-1.1,30.44,NW,315,4.2,-999.0,71,-99.99,,,0.00,Acu-Link.com,2016-02-13 12:53:00,
2016-02-13 08:08:00,6.3,-1.1,30.44,WNW,292,3.2,-999.0,71,-99.99,,,0.00,Acu-Link.com,2016-02-13 13:08:00,
2016-02-13 08:24:00,6.4,-1.0,30.44,WNW,292,3.7,-999.0,71,-99.99,,,0.00,Acu-Link.com,2016-02-13 13:24:00,
2016-02-13 08:39:00,7.3,-0.4,30.45,WNW,292,3.7,-999.0,70,-99.99,,,0.00,Acu-Link.com,2016-02-13 13:39:00,
2016-02-13 08:54:00,8.1,-0.2,30.45,West,270,4.2,-999.0,68,-99.99,,,0.00,Acu-Link.com,2016-02-13 13:54:00,
2016-02-13 09:09:00,8.6,-0.1,30.46,West,270,4.2,-999.0,67,-99.99,,,0.00,Acu-Link.com,2016-02-13 14:09:00,
2016-02-13 09:24:00,9.1,0.4,30.46,NW,315,3.7,-999.0,67,-99.99,,,0.00,Acu-Link.com,2016-02-13 14:24:00,
2016-02-13 09:40:00,9.9,0.8,30.47,WNW,292,5.3,-999.0,66,-99.99,,,0.00,Acu-Link.com,2016-02-13 14:40:00,
2016-02-13 09:55:00,10.2,0.5,30.48,NW,315,4.2,-999.0,64,-99.99,,,0.00,Acu-Link.com,2016-02-13 14:55:00,
2016-02-13 10:10:00,10.8,0.7,30.48,NW,315,4.7,-999.0,63,-99.99,,,0.00,Acu-Link.com,2016-02-13 15:10:00,
2016-02-13 10:40:00,12.0,1.5,30.48,West,270,3.7,-999.0,62,-99.99,,,0.00,Acu-Link.com,2016-02-13 15:40:00,
2016-02-13 10:56:00,12.2,1.4,30.48,WNW,292,4.2,-999.0,61,-99.99,,,0.00,Acu-Link.com,2016-02-13 15:56:00,
2016-02-13 11:11:00,13.3,1.7,30.48,NNW,337,5.3,-999.0,59,-99.99,,,0.00,Acu-Link.com,2016-02-13 16:11:00,
2016-02-13 11:26:00,14.2,2.5,30.48,WNW,292,3.7,-999.0,59,-99.99,,,0.00,Acu-Link.com,2016-02-13 16:26:00,
2016-02-13 11:41:00,14.7,3.0,30.48,NW,315,6.3,-999.0,59,-99.99,,,0.00,Acu-Link.com,2016-02-13 16:41:00,
2016-02-13 11:56:00,14.9,2.5,30.48,NNW,337,2.2,-999.0,57,-99.99,,,0.00,Acu-Link.com,2016-02-13 16:56:00,
2016-02-13 12:11:00,15.6,1.1,30.47,NW,315,5.3,-999.0,52,-99.99,,,0.00,Acu-Link.com,2016-02-13 17:11:00,
2016-02-13 12:27:00,16.5,2.0,30.47,West,270,5.3,-999.0,52,-99.99,,,0.00,Acu-Link.com,2016-02-13 17:27:00,
2016-02-13 12:42:00,16.7,3.0,30.46,WNW,292,4.2,-999.0,54,-99.99,,,0.00,Acu-Link.com,2016-02-13 17:42:00,
2016-02-13 12:57:00,18.1,3.5,30.45,NW,315,4.2,-999.0,52,-99.99,,,0.00,Acu-Link.com,2016-02-13 17:57:00,
2016-02-13 13:13:00,17.1,2.1,30.45,SW,225,5.8,-999.0,51,-99.99,,,0.00,Acu-Link.com,2016-02-13 18:13:00,
2016-02-13 13:28:00,17.4,1.1,30.44,WSW,247,2.7,-999.0,48,-99.99,,,0.00,Acu-Link.com,2016-02-13 18:28:00,
2016-02-13 13:43:00,18.1,1.3,30.44,WNW,292,4.7,-999.0,47,-99.99,,,0.00,Acu-Link.com,2016-02-13 18:43:00,
2016-02-13 13:59:00,18.3,2.4,30.44,WNW,292,3.7,-999.0,49,-99.99,,,0.00,Acu-Link.com,2016-02-13 18:59:00,
2016-02-13 14:14:00,18.7,0.0,30.43,West,270,6.3,-999.0,43,-99.99,,,0.00,Acu-Link.com,2016-02-13 19:14:00,
2016-02-13 14:29:00,19.0,1.2,30.44,West,270,5.8,-999.0,45,-99.99,,,0.00,Acu-Link.com,2016-02-13 19:29:00,
2016-02-13 14:44:00,19.8,0.5,30.43,NW,315,2.7,-999.0,42,-99.99,,,0.00,Acu-Link.com,2016-02-13 19:44:00,
2016-02-13 14:59:00,19.9,1.1,30.42,NW,315,5.8,-999.0,43,-99.99,,,0.00,Acu-Link.com,2016-02-13 19:59:00,
2016-02-13 15:14:00,19.6,1.7,30.41,WSW,247,4.7,-999.0,45,-99.99,,,0.00,Acu-Link.com,2016-02-13 20:14:00,
2016-02-13 15:29:00,19.9,2.5,30.41,West,270,5.8,-999.0,46,-99.99,,,0.00,Acu-Link.com,2016-02-13 20:29:00,
2016-02-13 15:45:00,19.8,1.0,30.41,SW,225,3.2,-999.0,43,-99.99,,,0.00,Acu-Link.com,2016-02-13 20:45:00,
2016-02-13 16:00:00,20.5,1.1,30.40,West,270,4.2,-999.0,42,-99.99,,,0.00,Acu-Link.com,2016-02-13 21:00:00,
2016-02-13 16:15:00,19.9,0.6,30.41,West,270,4.7,-999.0,42,-99.99,,,0.00,Acu-Link.com,2016-02-13 21:15:00,
2016-02-13 16:30:00,19.9,0.6,30.41,WNW,292,4.2,-999.0,42,-99.99,,,0.00,Acu-Link.com,2016-02-13 21:30:00,
2016-02-13 16:45:00,19.8,1.0,30.42,West,270,4.2,-999.0,43,-99.99,,,0.00,Acu-Link.com,2016-02-13 21:45:00,
2016-02-13 17:01:00,19.6,1.7,30.41,WNW,292,3.2,-999.0,45,-99.99,,,0.00,Acu-Link.com,2016-02-13 22:01:00,
2016-02-13 17:16:00,19.9,2.0,30.42,West,270,4.7,-999.0,45,-99.99,,,0.00,Acu-Link.com,2016-02-13 22:16:00,
2016-02-13 17:31:00,18.7,0.9,30.43,NW,315,4.2,-999.0,45,-99.99,,,0.00,Acu-Link.com,2016-02-13 22:31:00,
2016-02-13 17:47:00,19.2,1.4,30.43,West,270,2.2,-999.0,45,-99.99,,,0.00,Acu-Link.com,2016-02-13 22:47:00,
2016-02-13 18:02:00,18.0,1.7,30.43,West,270,2.7,-999.0,48,-99.99,,,0.00,Acu-Link.com,2016-02-13 23:02:00,
2016-02-13 18:17:00,17.1,1.7,30.43,WSW,247,2.7,-999.0,50,-99.99,,,0.00,Acu-Link.com,2016-02-13 23:17:00,
2016-02-13 18:32:00,16.2,2.1,30.42,SSW,202,2.7,-999.0,53,-99.99,,,0.00,Acu-Link.com,2016-02-13 23:32:00,
2016-02-13 18:48:00,15.4,2.2,30.42,SW,225,2.7,-999.0,55,-99.99,,,0.00,Acu-Link.com,2016-02-13 23:48:00,